Regional Weather Roundup
Issued by NWS

Home | Current Version | Previous Version | Graphics & Text | Print | Product List | Glossary On
Versions: 1 2 3 4 5 6 7 8 9 10 11 12 13 14 15 16 17 18 19 20 21 22 23 24 25 26 27 28 29 30 31 32 33 34 35 36 37 38 39 40 41 42 43 44 45 46 47 48 49 50
000
ASUS43 KMKX 011800
RWRWI

WISCONSIN REGIONAL WEATHER ROUNDUP
NATIONAL WEATHER SERVICE MILWAUKEE/SULLIVAN WI
100 PM CDT WED OCT 01 2014

NOTE: "FAIR" INDICATES FEW OR NO CLOUDS BELOW 12,000 FEET WITH NO
SIGNIFICANT WEATHER AND/OR OBSTRUCTIONS TO VISIBILITY.

WIZ001-002-006>008-014>016-023>028-011900-
NORTHWEST WISCONSIN

CITY           SKY/WX    TMP DP  RH WIND       PRES   REMARKS
SUPERIOR ARPT  LGT RAIN  49  49  99 E5        29.84F
ASHLAND        LGT RAIN  51  49  92 SE5       29.86F FOG
6HR MIN TEMP:  43; 6HR MAX TEMP:  52; 6HR PCP:  0.11;

HAYWARD        LGT RAIN  49  47  93 SE6       29.84F FOG
6HR MIN TEMP:  47; 6HR MAX TEMP:  49; 6HR PCP:  0.27;

SIREN          NOT AVBL
CUMBERLAND     RAIN      46  46 100 SE9       29.83F
RICE LAKE      LGT RAIN  49  48  93 SE13      29.85F
6HR MIN TEMP:  47; 6HR MAX TEMP:  49; 6HR PCP:  0.04;

CHETEK         RAIN      49  48  97 E7        29.85F
LADYSMITH      RAIN      50  49  95 E6        29.88F
EAU CLAIRE     LGT RAIN  51  48  89 SE7       29.84F
6HR MIN TEMP:  47; 6HR MAX TEMP:  51; 6HR PCP:  0.36;

MENOMONIE      HVY RAIN  50  49  97 E5        29.84F
NEW RICHMOND   HVY RAIN  49  49  99 SE6       29.83F
OSCEOLA        RAIN      50  50 100 SE6       29.85F
$$

WIZ003>005-009-010-017-018-011900-
NORTH CENTRAL WISCONSIN

CITY           SKY/WX    TMP DP  RH WIND       PRES   REMARKS
MANITOWISH WTR CLOUDY    53  46  76 SE13      29.90F
ARBOR VITAE    NOT AVBL
WOODRUFF       NOT AVBL
RHINELANDER    MOSUNNY   56  46  69 SE13      29.93F
6HR MIN TEMP:  43; 6HR MAX TEMP:  57;

EAGLE RIVER    CLOUDY    53  44  70 SE7       29.93F
LAND O LAKES   CLOUDY    53  45  74 S9G18     29.94F
PHILLIPS       DRIZZLE   51  47  87 SE6       29.88F
6HR MIN TEMP:  44; 6HR MAX TEMP:  51;

TOMAHAWK       CLOUDY    55  46  72 SE5       29.92F
MEDFORD        CLOUDY    52  47  83 SE8G17    29.89F
MERRILL        CLOUDY    56  48  74 S12       29.93F
$$

WIZ029-030-035-036-043>047-011900-
CENTRAL WISCONSIN

CITY           SKY/WX    TMP DP  RH WIND       PRES   REMARKS
WAUSAU         MOSUNNY   59  49  69 SE10      29.90F
6HR MIN TEMP:  46; 6HR MAX TEMP:  59;

MOSINEE        CLOUDY    57  50  77 SE12      29.92F
MARSHFIELD     FAIR      58  49  72 SE13      29.88F
6HR MIN TEMP:  47; 6HR MAX TEMP:  58;

STEVENS POINT  PTSUNNY   58  47  68 SE12      29.93F
WAUPACA        NOT AVBL
WAUTOMA        NOT AVBL
WISC RAPIDS    FAIR      60  49  66 SE12      29.91F
6HR MIN TEMP:  48; 6HR MAX TEMP:  61;

CAMP DOUGLAS   NOT AVBL
$$

WIZ011>013-019>022-031-037>040-048>050-011900-
NORTHEAST WISCONSIN

CITY           SKY/WX    TMP DP  RH WIND       PRES   REMARKS
ANTIGO         NOT AVBL
SHAWANO        CLOUDY    62  52  67 S8G16     29.96F
6HR MIN TEMP:  49; 6HR MAX TEMP:  63;

OCONTO         CLOUDY    54  54 100 SE9       30.00F
STURGEON BAY   NOT AVBL
GREEN BAY      CLOUDY    62  52  69 SE13      29.97F
6HR MIN TEMP:  50; 6HR MAX TEMP:  62;

MANITOWOC      NOT AVBL
APPLETON       PTSUNNY   63  50  63 S17       29.96F
CLINTONVILLE   CLOUDY    63  50  63 S13       29.95F
OSHKOSH        SUNNY     64  51  62 SE13G21   29.94F
6HR MIN TEMP:  51; 6HR MAX TEMP:  64;

$$

WIZ032>034-041-042-053>061-011900-
SOUTHWEST WISCONSIN

CITY           SKY/WX    TMP DP  RH WIND       PRES   REMARKS
LA CROSSE      PTSUNNY   60  51  72 SE5       29.85F
6HR MIN TEMP:  51; 6HR MAX TEMP:  60; 6HR PCP: TRACE;

SPARTA         CLOUDY    59  49  70 SE7       29.88S
VIROQUA        PTSUNNY   60  51  71 SE12G22   29.85F
BOSCOBEL       PTSUNNY   66  52  60 SE9       29.87S
6HR MIN TEMP:  52; 6HR MAX TEMP:  66;

PRAIRIE DU CHI CLOUDY    62  49  64 SE8       29.85F
PLATTEVILLE    FAIR      65  54  69 SE16      29.88R
$$

WIZ056-057-062-063-064-067-068-011900-
SOUTH CENTRAL WISCONSIN

CITY           SKY/WX    TMP DP  RH WIND       PRES   REMARKS
REEDSBURG      FAIR      61  51  70 SE9       29.89F
BARABOO/DELLS  FAIR      62  49  62 SE10      29.89F
LONE ROCK      NOT AVBL
MINERAL POINT  FAIR      63  52  67 SE16      29.88S
MADISON        PTSUNNY   66  50  56 SE18      29.91F
6HR MIN TEMP:  50; 6HR MAX TEMP:  66;

MIDDLETON      FAIR      66  49  54 SE13      29.91F
WATERTOWN      PTSUNNY   65  50  58 SE12      29.94F
MONROE         FAIR      64  52  63 SE16      29.91F
JANESVILLE     MOSUNNY   70  50  49 SE13      29.93F
$$

WIZ051-052-058>065-066-070>072-011900-
SOUTHEAST WISCONSIN

CITY           SKY/WX    TMP DP  RH WIND       PRES   REMARKS
MILWAUKEE      MOSUNNY   61  50  67 SE20      29.99F
6HR MIN TEMP:  55; 6HR MAX TEMP:  62;

WAUKESHA       SUNNY     63  48  59 SE12      29.98F
MILWAUKEE/TIMM NOT AVBL
RACINE         PTSUNNY   62  50  64 S16G22    30.01F
6HR MIN TEMP:  57; 6HR MAX TEMP:  62;

BURLINGTON     SUNNY     64  48  55 S10       29.97F
KENOSHA        MOSUNNY   62  51  67 SE15      30.00S
6HR MIN TEMP:  55; 6HR MAX TEMP:  62;

FOND DU LAC    SUNNY     65  50  58 SE14      29.95F
6HR MIN TEMP:  51; 6HR MAX TEMP:  65;

SHEBOYGAN      CLOUDY    61  49  64 SE13G21   29.99
6HR MIN TEMP:  54; 6HR MAX TEMP:  62;

WEST BEND      SUNNY     63  46  55 SE13      29.97F
JUNEAU         MOSUNNY   63  49  62 SE10      29.96F
$$

LSZ147-162-011900-
LAKE SUPERIOR

STATION/POSITION TIME  TEMP    WIND        PRES    WAVE
                       AIR SEA DIR/SP/G            HT/PER
                 (UTC) (F)     (DEG/KT/KT) (MB)    (FT/S)
W MID LAKE BUOY  1650   50 50  120/  8/ 10 1012.7F   2/ 4
DEVILS ISLAND    1700   49     130/  3/  4 1012.3F
SAXON HARBOR     1700   55      CALM  /  5 1011.9F
$$

LMZ867-665-643>646-011900-
LAKE MICHIGAN

STATION/POSITION TIME  TEMP    WIND        PRES    WAVE
                       AIR SEA DIR/SP/G            HT/PER
                 (UTC) (F)     (DEG/KT/KT) (MB)    (FT/S)
CHAMBERS ISLAND  1700   57     140/  5/ 11 1016.9F
N MID LAKE BUOY  1650   55 58  170/ 12/ 12 1018.0S   1
NORTHPORT PIER   1700   56     140/ 10/ 13 1016.9F
SISTER BAY       1642          180/ 17/ 21   N/A
KEWAUNEE LAKESHO 1700   55     130/  9/ 13 1015.7F
SHEBOYGAN LAKESH 1700   56 54  130/ 17/ 18 1016.3F
PORT WASHINGTON  1700   60     150/ 11/ 14 1016.6
ATWATER BUOY     1700   58     160/ 14/ 16 1017.1F
MILWAUKEE LAKESH 1700   58     150/ 14/ 16   N/A
S MID LAKE BUOY  1650   57 61  130/ 10/ 12 1017.1F   1/ 3
KENOSHA   LAKESH 1700   58     150/ 16/ 18 1015.9F
$$

TC  - TEMPERATURE IN CELSIUS
VSB - VISIBILITY IN STATUTE MILES
WCI - WIND CHILL INDEX
HX  - HEAT INDEX




USA.gov is the U.S. government's official web portal to all federal, state and local government web resources and services.